This is the latest recevied weather packets stored in our database for station/object SP1BMW-13. If no packets are shown the sender has not sent any weather packets the latest 10 day(s).
| Time | Temp. | Humidity | Pressure | Rain* | Wind** | Luminosity | Snow |
|---|---|---|---|---|---|---|---|
| 1787899218 | 18.89° C | 59% | 1012.2 hPa | 0 mm | 0.89 m/s, 63° | 136 W/m² | - |
| 1787899158 | 18.89° C | 59% | 1012.1 hPa | 0 mm | 0.89 m/s, 39° | 129 W/m² | - |
| 1787899098 | 18.89° C | 59% | 1012.1 hPa | 0 mm | 1.79 m/s, 64° | 124 W/m² | - |
| 1787899039 | 18.89° C | 59% | 1012.2 hPa | 0 mm | 1.34 m/s, 121° | 119 W/m² | - |
| 1787898978 | 18.89° C | 60% | 1012.2 hPa | 0 mm | 1.79 m/s, 60° | 118 W/m² | - |
| 1787898918 | 18.89° C | 60% | 1012.2 hPa | 0 mm | 1.34 m/s, 170° | 114 W/m² | - |
| 1787898858 | 18.89° C | 60% | 1012 hPa | 0 mm | 1.34 m/s, 58° | 114 W/m² | - |
| 1787898799 | 18.89° C | 60% | 1012 hPa | 0 mm | 1.34 m/s, 79° | 116 W/m² | - |
| 1787898738 | 18.89° C | 60% | 1012.1 hPa | 0 mm | 1.34 m/s, 82° | 119 W/m² | - |
| 1787898678 | 18.89° C | 60% | 1012.1 hPa | 0 mm | 1.34 m/s, 22° | 125 W/m² | - |
| 1787898619 | 18.89° C | 60% | 1012.2 hPa | 0 mm | 2.24 m/s, 150° | 131 W/m² | - |
| 1787898558 | 18.89° C | 60% | 1012 hPa | 0 mm | 1.79 m/s, 60° | 136 W/m² | - |
| 1787898499 | 18.33° C | 60% | 1012.1 hPa | 0 mm | 0.89 m/s, 84° | 134 W/m² | - |
| 1787898438 | 18.33° C | 60% | 1012 hPa | 0 mm | 1.34 m/s, 179° | 127 W/m² | - |
| 1787898378 | 18.33° C | 60% | 1012.3 hPa | 0 mm | 1.79 m/s, 161° | 116 W/m² | - |
| 1787898318 | 18.33° C | 62% | 1012.2 hPa | 0 mm | 0.45 m/s, 133° | 108 W/m² | - |
| 1787898258 | 18.33° C | 61% | 1012 hPa | 0 mm | 0.45 m/s, 16° | 104 W/m² | - |
| 1787898198 | 18.33° C | 61% | 1012.1 hPa | 0 mm | 1.34 m/s, 13° | 102 W/m² | - |
| 1787898138 | 18.33° C | 60% | 1012 hPa | 0 mm | 0.45 m/s, 47° | 101 W/m² | - |
| 1787898078 | 18.33° C | 62% | 1012.1 hPa | 0 mm | 0.45 m/s, 34° | 99 W/m² | - |
| 1787898018 | 18.33° C | 61% | 1012.3 hPa | 0 mm | 1.34 m/s, 51° | 99 W/m² | - |
| 1787897958 | 18.33° C | 62% | 1012.2 hPa | 0 mm | 0 m/s | 98 W/m² | - |
| 1787897898 | 18.33° C | 61% | 1012.3 hPa | 0 mm | 0.89 m/s, 317° | 98 W/m² | - |
| 1787897839 | 18.33° C | 61% | 1012.3 hPa | 0 mm | 1.79 m/s, 75° | 99 W/m² | - |
| 1787897778 | 18.33° C | 61% | 1012.2 hPa | 0 mm | 0.45 m/s, 57° | 100 W/m² | - |
* Rain latest hour (hover to see other rain measurements)
** Current wind speed in m/s (hover to see current wind gust speed)